PDT,Max TemperatureF,Mean TemperatureF,Min TemperatureF,Max Dew PointF,MeanDew PointF,Min DewpointF,Max Humidity, Mean Humidity, Min Humidity, Max Sea Level PressureIn, Mean Sea Level PressureIn, Min Sea Level PressureIn, Max VisibilityMiles, Mean VisibilityMiles, Min VisibilityMiles, Max Wind SpeedMPH, Mean Wind SpeedMPH, Max Gust SpeedMPH,PrecipitationIn, CloudCover, Events, WindDirDegrees
2014-4-1,35,29,23,22,19,9,75,61,47,29.84,29.79,29.76,10,5,0,20,9,26,0.01,7,Snow,189
2014-4-2,44,33,22,29,23,17,88,62,36,30.04,29.92,29.78,10,8,1,14,3,17,0.04,5,Snow,117
2014-4-3,47,35,23,24,20,16,85,58,31,30.07,30.02,30.00,10,10,10,13,5,20,0.00,0,,197
2014-4-4,46,38,30,25,21,12,72,50,27,29.98,29.93,29.90,10,10,10,20,9,24,0.00,4,,195
2014-4-5,51,38,25,26,22,13,75,49,23,30.21,30.07,29.95,10,10,10,15,4,19,0.00,1,,163
2014-4-6,59,44,28,30,26,22,78,54,30,30.30,30.25,30.21,10,10,10,17,4,23,0.00,0,,192
2014-4-7,66,47,28,35,28,22,85,54,22,30.33,30.27,30.22,10,10,10,12,4,18,0.00,0,,173
2014-4-8,68,49,30,35,30,22,85,52,18,30.29,30.20,30.10,10,10,10,16,3,34,0.00,0,,196
2014-4-9,65,49,33,34,26,18,69,44,19,30.17,30.09,30.04,10,10,9,18,7,28,0.00,0,,204
2014-4-10,68,49,29,38,27,18,78,47,15,30.13,30.07,30.00,10,10,10,13,2,29,0.00,0,,36
2014-4-11,66,49,31,37,32,26,82,54,26,30.04,29.97,29.90,10,10,10,13,2,18,0.00,0,,170
2014-4-12,67,50,32,34,30,22,89,54,19,29.92,29.87,29.83,10,10,10,15,3,25,0.00,0,,185
2014-4-13,61,46,30,28,17,2,78,44,10,30.18,30.05,29.92,10,10,10,17,5,24,0.00,0,,99
2014-4-14,68,47,25,40,24,9,76,47,17,30.21,30.16,30.10,10,10,10,13,4,21,0.00,0,,175
2014-4-15,65,49,32,34,23,6,82,47,11,30.11,30.01,29.94,10,10,10,16,3,24,0.00,0,,203
2014-4-16,67,49,30,38,28,22,70,47,24,29.96,29.93,29.88,10,10,10,13,2,18,0.00,0,,141
2014-4-17,69,50,31,37,32,27,82,53,24,29.94,29.87,29.80,10,10,10,24,5,40,0.00,0,,192
2014-4-18,64,51,37,44,36,30,86,60,34,30.02,29.90,29.80,10,10,3,18,4,22,0.03,3,Rain-Thunderstorm,190
2014-4-19,63,48,33,36,28,19,89,56,23,30.12,30.03,29.93,10,10,9,22,5,28,0.00,0,,197
2014-4-20,66,47,28,31,21,7,69,39,9,30.23,30.17,30.14,10,10,10,12,2,16,0.00,0,,172
2014-4-21,63,47,31,31,23,15,78,48,17,30.15,30.04,29.85,10,10,10,31,7,44,T,1,Rain,193
2014-4-22,43,38,32,31,27,18,82,61,40,30.03,29.92,29.78,10,5,0,26,9,38,0.23,7,Rain-Snow,192
2014-4-23,55,41,26,31,25,19,85,58,31,30.07,30.03,30.00,10,10,10,14,3,18,0.00,1,,155
2014-4-24,57,44,30,30,26,18,82,56,30,30.06,29.98,29.82,10,10,9,24,6,37,0.01,2,Rain,191
2014-4-25,39,33,27,32,30,23,85,81,76,29.90,29.73,29.64,10,3,0,21,8,29,0.44,8,Fog-Rain-Snow,177
2014-4-26,41,34,27,26,23,20,85,65,44,29.97,29.82,29.69,10,10,2,20,4,26,T,6,Snow,184
2014-4-27,48,39,30,29,22,10,72,54,36,30.03,29.97,29.93,10,10,10,22,11,29,0.00,4,,196
2014-4-28,58,42,25,26,18,8,75,45,15,30.27,30.19,30.09,10,10,10,13,3,17,0.00,0,,77
2014-4-29,64,46,28,27,20,16,75,46,16,30.38,30.33,30.30,10,10,10,20,5,26,0.00,0,,98
2014-4-30,68,49,30,26,17,5,69,39,9,30.36,30.28,30.24,10,10,10,13,3,18,0.00,0,,190